Location: Audinghen
(50.8518°N, 1.6129°E)
Time: 08:18:57
(UTC+00:00)

IDEFIX/ARIANE 42P - Pass Details

Date: 07 August 2020
Orbit: 786 x 802 km, 98.4° (Epoch: 26 September)

Event Time Altitude Azimuth Distance (km) Brightness Sun altitude
Rises 02:08:54 0° 23° (NNE) 3,293 7.5 -17.1°
Reaches altitude 10° 02:11:38 10° 36° (NE) 2,360 6.4 -16.8°
Maximum altitude 02:15:55 26° 92° (E) 1,536 4.4 -16.5°
Drops below altitude 10° 02:20:11 10° 148° (SSE) 2,351 4.8 -16.1°
Enters shadow 02:21:53 - 157° (SSE) 2,920 5.2 -15.9°
